Weather in Zelene

Ukraine / Dnipropetrovsk Region     48°01′06″N   34°12′11″E
temp.,
°C
wind,
m/s
gust,
m/s
humid.,
%
clouds,
%
prec.,
mm/h
press.,
hPa
HPBL,
m
17 april, sat
sat1700:00+4ssw388279 0.0 1018201
03:00+5sw5985100 0.1 10181113
06:00+5sw598696 0.4 1018744
09:00+7wsw577155 0.4 1020888
12:00+12w7105044 0.0 10201698
15:00+12w6847100 0.0 10202036
18:00+11wnw355994 0.0 1020445
21:00+8nnw226918 0.0 102116
18 april, sun
sun1800:00+7ne117326 0.0 102010
03:00+6e11757 0.0 102010
06:00+5s117972 0.0 101910
09:00+10s336482 0.0 1019430
12:00+14ssw444414 0.0 10181639
15:00+15s334194 0.0 10171771
18:00+14s3343100 0.0 10161039
21:00+12sse224679 0.0 101717
19 april, mon
mon1900:00+10s367659 0.0 1016138
03:00+8ssw2382100 0.0 101686
06:00+8w118696 0.0 101512
09:00+12ene117199 0.0 1015524
12:00+15e2151100 0.1 10141584
15:00+15ese1250100 0.3 10131322
18:00+15ene1256100 0.0 1011734
21:00+12ene3567100 0.0 1010131
20 april, tue
tue2000:00+12ene5975100 0.0 1007312
03:00+10ene51093100 1.8 1005505
06:00+9ne71396100 9.4 1001633
09:00+10e61197100 16.3 997607
12:00+13ssw7107589 2.1 9961123
15:00+14ssw796798 2.8 9951324
18:00+11wsw347968 0.6 995446
21:00+8wnw91287100 1.1 10001196
21 april, wed
wed2100:00+9w71385100 0.1 1005708
03:00+7wsw61189100 0.1 1009358
06:00+6sw51190100 0.0 1011336
09:00+9wsw61073100 0.0 1013768
12:00+13wsw685521 0.0 10151330
15:00+15wsw584696 0.0 10152137
18:00+12ssw3662100 0.2 1016162
21:00+10ssw22725 0.3 101813